Time,TemperatureF,DewpointF,PressureIn,WindDirection,WindDirectionDegrees,WindSpeedMPH,WindSpeedGustMPH,Humidity,HourlyPrecipIn,Conditions,Clouds,dailyrainin,SoftwareType,DateUTC
2013-01-23 00:00:00,35.1,-4.2,30.02,NNW,346,2.0,4.0,18,0.00,,,0.00,meteohub,2013-01-23 07:00:00,
2013-01-23 00:02:00,34.9,-4.4,30.02,NNW,346,0.0,4.0,18,0.00,,,0.00,meteohub,2013-01-23 07:02:00,
2013-01-23 00:03:00,34.7,-4.5,30.02,NNW,346,0.0,4.0,18,0.00,,,0.00,meteohub,2013-01-23 07:03:00,
2013-01-23 00:05:00,34.5,-4.7,30.02,NNW,346,1.0,4.0,18,0.00,,,0.00,meteohub,2013-01-23 07:05:00,
2013-01-23 00:07:00,34.5,-4.7,30.02,NNW,346,0.0,4.0,18,0.00,,,0.00,meteohub,2013-01-23 07:07:00,
2013-01-23 00:08:00,34.3,-4.7,30.02,NNW,346,2.0,4.0,18,0.00,,,0.00,meteohub,2013-01-23 07:08:00,
2013-01-23 00:11:00,34.2,-3.8,30.03,West,281,1.0,5.0,19,0.00,,,0.00,meteohub,2013-01-23 07:11:00,
2013-01-23 00:12:00,34.0,-4.0,30.03,West,281,0.0,5.0,19,0.00,,,0.00,meteohub,2013-01-23 07:12:00,
2013-01-23 00:13:00,34.0,-4.0,30.02,WNW,290,3.0,5.0,19,0.00,,,0.00,meteohub,2013-01-23 07:13:00,
2013-01-23 00:15:00,34.0,-4.0,30.02,WNW,290,1.0,5.0,19,0.00,,,0.00,meteohub,2013-01-23 07:15:00,
2013-01-23 00:17:00,34.0,-4.0,30.02,WNW,290,2.0,5.0,19,0.00,,,0.00,meteohub,2013-01-23 07:17:00,
2013-01-23 00:18:00,33.8,-4.2,30.03,WNW,290,1.0,5.0,19,0.00,,,0.00,meteohub,2013-01-23 07:18:00,
2013-01-23 00:19:00,33.6,-4.4,30.03,WNW,286,5.0,5.0,19,0.00,,,0.00,meteohub,2013-01-23 07:19:00,
2013-01-23 00:22:00,33.6,-4.4,30.03,NW,308,0.0,5.0,19,0.00,,,0.00,meteohub,2013-01-23 07:22:00,
2013-01-23 00:23:00,33.6,-4.4,30.02,NNW,348,3.0,5.0,19,0.00,,,0.00,meteohub,2013-01-23 07:23:00,
2013-01-23 00:24:00,33.6,-4.4,30.02,NE,39,2.0,5.0,19,0.00,,,0.00,meteohub,2013-01-23 07:24:00,
2013-01-23 00:25:00,33.6,-3.3,30.02,NE,39,2.0,5.0,20,0.00,,,0.00,meteohub,2013-01-23 07:25:00,
2013-01-23 00:28:00,33.6,-3.3,30.02,NE,39,0.0,6.0,20,0.00,,,0.00,meteohub,2013-01-23 07:28:00,
2013-01-23 00:29:00,33.6,-3.3,30.03,NE,39,0.0,6.0,20,0.00,,,0.00,meteohub,2013-01-23 07:29:00,
2013-01-23 00:30:00,33.6,-3.3,30.03,NNE,30,2.0,6.0,20,0.00,,,0.00,meteohub,2013-01-23 07:30:00,
2013-01-23 00:32:00,33.6,-3.3,30.03,WNW,298,1.0,6.0,20,0.00,,,0.00,meteohub,2013-01-23 07:32:00,
2013-01-23 00:34:00,33.6,-3.3,30.03,WNW,298,0.0,6.0,20,0.00,,,0.00,meteohub,2013-01-23 07:34:00,
2013-01-23 00:36:00,33.6,-3.3,30.03,WNW,298,0.0,5.0,20,0.00,,,0.00,meteohub,2013-01-23 07:36:00,
2013-01-23 00:37:00,33.6,-3.3,30.03,WNW,298,3.0,5.0,20,0.00,,,0.00,meteohub,2013-01-23 07:37:00,
2013-01-23 00:43:00,33.3,-3.5,30.03,WNW,298,0.0,5.0,20,0.00,,,0.00,meteohub,2013-01-23 07:43:00,
2013-01-23 00:46:00,33.1,-2.6,30.03,WNW,298,0.0,5.0,21,0.00,,,0.00,meteohub,2013-01-23 07:46:00,
2013-01-23 00:48:00,32.7,-2.9,30.02,WNW,298,0.0,5.0,21,0.00,,,0.00,meteohub,2013-01-23 07:48:00,
2013-01-23 00:51:00,32.5,-3.1,30.03,WNW,298,1.0,3.0,21,0.00,,,0.00,meteohub,2013-01-23 07:51:00,
2013-01-23 00:52:00,32.5,-3.1,30.03,WNW,298,0.0,3.0,21,0.00,,,0.00,meteohub,2013-01-23 07:52:00,
2013-01-23 00:54:00,32.5,-3.1,30.03,WNW,298,3.0,3.0,21,0.00,,,0.00,meteohub,2013-01-23 07:54:00,
2013-01-23 00:55:00,32.5,-3.1,30.03,WNW,298,4.0,4.0,21,0.00,,,0.00,meteohub,2013-01-23 07:55:00,
2013-01-23 00:57:00,32.4,-3.3,30.03,WNW,298,1.0,3.0,21,0.00,,,0.00,meteohub,2013-01-23 07:57:00,
2013-01-23 00:59:00,32.2,-3.5,30.03,WNW,298,2.0,3.0,21,0.00,,,0.00,meteohub,2013-01-23 07:59:00,
2013-01-23 01:02:00,31.8,-3.6,30.03,WNW,298,0.0,5.0,21,0.00,,,0.00,meteohub,2013-01-23 08:02:00,
2013-01-23 01:04:00,31.8,-2.7,30.03,WNW,298,2.0,5.0,22,0.00,,,0.00,meteohub,2013-01-23 08:04:00,
2013-01-23 01:05:00,31.8,-2.7,30.03,WNW,298,2.0,5.0,22,0.00,,,0.00,meteohub,2013-01-23 08:05:00,
2013-01-23 01:06:00,31.8,-2.7,30.03,WNW,298,1.0,5.0,22,0.00,,,0.00,meteohub,2013-01-23 08:06:00,
2013-01-23 01:10:00,31.6,-2.9,30.03,WNW,298,0.0,5.0,22,0.00,,,0.00,meteohub,2013-01-23 08:10:00,
2013-01-23 01:11:00,31.6,-2.9,30.03,WNW,298,0.0,4.0,22,0.00,,,0.00,meteohub,2013-01-23 08:11:00,
2013-01-23 01:12:00,31.6,-2.9,30.03,WNW,298,0.0,4.0,22,0.00,,,0.00,meteohub,2013-01-23 08:12:00,
2013-01-23 01:13:00,31.5,-3.1,30.03,WNW,298,0.0,4.0,22,0.00,,,0.00,meteohub,2013-01-23 08:13:00,
2013-01-23 01:16:00,31.5,-3.1,30.03,WNW,294,2.0,4.0,22,0.00,,,0.00,meteohub,2013-01-23 08:16:00,
2013-01-23 01:17:00,31.3,-3.1,30.03,WNW,294,0.0,4.0,22,0.00,,,0.00,meteohub,2013-01-23 08:17:00,
2013-01-23 01:19:00,31.3,-3.1,30.03,WNW,294,1.0,4.0,22,0.00,,,0.00,meteohub,2013-01-23 08:19:00,
2013-01-23 01:21:00,31.3,-3.1,30.03,WNW,294,1.0,4.0,22,0.00,,,0.00,meteohub,2013-01-23 08:21:00,
2013-01-23 01:23:00,31.1,-3.3,30.03,WNW,294,0.0,4.0,22,0.00,,,0.00,meteohub,2013-01-23 08:23:00,
2013-01-23 01:24:00,31.1,-3.3,30.04,WNW,294,0.0,4.0,22,0.00,,,0.00,meteohub,2013-01-23 08:24:00,
2013-01-23 01:25:00,31.1,-3.3,30.04,WNW,294,0.0,4.0,22,0.00,,,0.00,meteohub,2013-01-23 08:25:00,
2013-01-23 01:27:00,30.9,-3.5,30.04,WNW,294,0.0,4.0,22,0.00,,,0.00,meteohub,2013-01-23 08:27:00,
2013-01-23 01:30:00,30.7,-3.6,30.04,WNW,294,0.0,4.0,22,0.00,,,0.00,meteohub,2013-01-23 08:30:00,
2013-01-23 01:31:00,30.7,-3.6,30.04,WNW,294,1.0,3.0,22,0.00,,,0.00,meteohub,2013-01-23 08:31:00,
2013-01-23 01:32:00,30.6,-3.8,30.03,WNW,294,1.0,3.0,22,0.00,,,0.00,meteohub,2013-01-23 08:32:00,
2013-01-23 01:33:00,30.6,-3.8,30.03,WNW,294,2.0,3.0,22,0.00,,,0.00,meteohub,2013-01-23 08:33:00,
2013-01-23 01:37:00,30.2,-4.2,30.03,WNW,297,2.0,4.0,22,0.00,,,0.00,meteohub,2013-01-23 08:37:00,
2013-01-23 01:38:00,30.0,-4.2,30.04,WNW,297,2.0,4.0,22,0.00,,,0.00,meteohub,2013-01-23 08:38:00,
2013-01-23 01:43:00,30.0,-4.2,30.04,SW,228,6.0,6.0,22,0.00,,,0.00,meteohub,2013-01-23 08:43:00,
2013-01-23 01:44:00,30.0,-4.2,30.04,SW,229,5.0,5.0,22,0.00,,,0.00,meteohub,2013-01-23 08:44:00,
2013-01-23 01:45:00,30.0,-4.2,30.04,SW,230,6.0,6.0,22,0.00,,,0.00,meteohub,2013-01-23 08:45:00,
2013-01-23 01:47:00,30.0,-4.2,30.04,SW,230,4.0,8.0,22,0.00,,,0.00,meteohub,2013-01-23 08:47:00,
2013-01-23 01:50:00,30.0,-4.2,30.03,WNW,288,2.0,8.0,22,0.00,,,0.00,meteohub,2013-01-23 08:50:00,
2013-01-23 01:51:00,30.0,-4.2,30.03,WNW,288,4.0,8.0,22,0.00,,,0.00,meteohub,2013-01-23 08:51:00,
2013-01-23 01:52:00,30.0,-4.2,30.03,WNW,288,3.0,8.0,22,0.00,,,0.00,meteohub,2013-01-23 08:52:00,
2013-01-23 02:21:00,28.9,-3.3,30.01,WNW,288,3.0,3.0,24,0.00,,,0.00,meteohub,2013-01-23 09:21:00,
2013-01-23 02:22:00,28.9,-3.3,30.01,WNW,288,3.0,3.0,24,0.00,,,0.00,meteohub,2013-01-23 09:22:00,
2013-01-23 02:25:00,28.8,-3.5,30.01,WNW,288,1.0,2.0,24,0.00,,,0.00,meteohub,2013-01-23 09:25:00,
2013-01-23 02:27:00,28.8,-3.5,30.01,WNW,288,2.0,3.0,24,0.00,,,0.00,meteohub,2013-01-23 09:27:00,
2013-01-23 02:29:00,28.8,-3.5,30.01,WNW,288,0.0,3.0,24,0.00,,,0.00,meteohub,2013-01-23 09:29:00,
2013-01-23 02:32:00,28.8,-3.5,30.02,WNW,288,2.0,3.0,24,0.00,,,0.00,meteohub,2013-01-23 09:32:00,
2013-01-23 02:33:00,28.8,-3.5,30.02,WNW,288,2.0,3.0,24,0.00,,,0.00,meteohub,2013-01-23 09:33:00,
2013-01-23 02:34:00,28.8,-3.5,30.02,WNW,288,1.0,3.0,24,0.00,,,0.00,meteohub,2013-01-23 09:34:00,
2013-01-23 02:38:00,28.8,-3.5,30.02,WNW,288,0.0,4.0,24,0.00,,,0.00,meteohub,2013-01-23 09:38:00,
2013-01-23 02:39:00,28.8,-3.5,30.02,WNW,288,1.0,4.0,24,0.00,,,0.00,meteohub,2013-01-23 09:39:00,
2013-01-23 02:42:00,28.9,-4.2,30.02,WNW,288,1.0,4.0,23,0.00,,,0.00,meteohub,2013-01-23 09:42:00,
2013-01-23 02:43:00,29.1,-4.0,30.02,WNW,288,0.0,4.0,23,0.00,,,0.00,meteohub,2013-01-23 09:43:00,
2013-01-23 02:44:00,29.1,-3.3,30.02,WNW,288,0.0,4.0,24,0.00,,,0.00,meteohub,2013-01-23 09:44:00,
2013-01-23 02:45:00,29.1,-3.3,30.02,WNW,288,0.0,4.0,24,0.00,,,0.00,meteohub,2013-01-23 09:45:00,
2013-01-23 02:47:00,29.5,-2.9,30.02,WNW,288,0.0,4.0,24,0.00,,,0.00,meteohub,2013-01-23 09:47:00,
2013-01-23 02:49:00,29.5,-2.9,30.02,WNW,288,1.0,4.0,24,0.00,,,0.00,meteohub,2013-01-23 09:49:00,
2013-01-23 02:50:00,29.7,-2.7,30.02,WNW,288,0.0,4.0,24,0.00,,,0.00,meteohub,2013-01-23 09:50:00,
2013-01-23 02:53:00,29.7,-2.7,30.02,WNW,288,0.0,3.0,24,0.00,,,0.00,meteohub,2013-01-23 09:53:00,
2013-01-23 02:55:00,29.8,-3.5,30.02,WNW,288,0.0,3.0,23,0.00,,,0.00,meteohub,2013-01-23 09:55:00,
2013-01-23 02:56:00,29.8,-3.5,30.01,WNW,288,0.0,3.0,23,0.00,,,0.00,meteohub,2013-01-23 09:56:00,
2013-01-23 02:57:00,29.8,-3.5,30.01,WNW,288,0.0,3.0,23,0.00,,,0.00,meteohub,2013-01-23 09:57:00,
2013-01-23 02:58:00,29.8,-4.4,30.02,WNW,288,1.0,3.0,22,0.00,,,0.00,meteohub,2013-01-23 09:58:00,
2013-01-23 03:00:00,29.8,-3.5,30.02,WNW,288,0.0,3.0,23,0.00,,,0.00,meteohub,2013-01-23 10:00:00,
2013-01-23 03:01:00,30.0,-3.3,30.02,WNW,288,0.0,2.0,23,0.00,,,0.00,meteohub,2013-01-23 10:01:00,
2013-01-23 03:03:00,30.0,-4.2,30.02,WNW,288,0.0,2.0,22,0.00,,,0.00,meteohub,2013-01-23 10:03:00,
2013-01-23 03:07:00,30.0,-4.2,30.02,WNW,288,0.0,2.0,22,0.00,,,0.00,meteohub,2013-01-23 10:07:00,
2013-01-23 03:08:00,30.4,-4.0,30.02,WNW,288,0.0,2.0,22,0.00,,,0.00,meteohub,2013-01-23 10:08:00,
2013-01-23 03:12:00,30.6,-2.9,30.02,WNW,288,1.0,3.0,23,0.00,,,0.00,meteohub,2013-01-23 10:12:00,
2013-01-23 03:15:00,30.6,-2.0,30.02,WNW,288,0.0,3.0,24,0.00,,,0.00,meteohub,2013-01-23 10:15:00,
2013-01-23 03:17:00,30.6,-2.0,30.02,WNW,288,2.0,4.0,24,0.00,,,0.00,meteohub,2013-01-23 10:17:00,
2013-01-23 03:18:00,30.4,-2.2,30.03,WNW,288,2.0,4.0,24,0.00,,,0.00,meteohub,2013-01-23 10:18:00,
2013-01-23 03:20:00,30.4,-4.0,30.02,WNW,288,5.0,5.0,22,0.00,,,0.00,meteohub,2013-01-23 10:20:00,
2013-01-23 03:22:00,30.4,-2.9,30.02,WSW,252,0.0,4.0,23,0.00,,,0.00,meteohub,2013-01-23 10:22:00,
2013-01-23 03:23:00,30.6,-3.8,30.02,WSW,252,0.0,4.0,22,0.00,,,0.00,meteohub,2013-01-23 10:23:00,
2013-01-23 03:24:00,30.6,-3.8,30.02,WSW,252,3.0,4.0,22,0.00,,,0.00,meteohub,2013-01-23 10:24:00,
2013-01-23 03:26:00,30.6,-3.8,30.02,WSW,252,0.0,7.0,22,0.00,,,0.00,meteohub,2013-01-23 10:26:00,
2013-01-23 03:29:00,30.7,-5.6,30.03,WSW,252,1.0,7.0,20,0.00,,,0.00,meteohub,2013-01-23 10:29:00,
2013-01-23 03:30:00,30.7,-5.6,30.03,WSW,252,0.0,7.0,20,0.00,,,0.00,meteohub,2013-01-23 10:30:00,
2013-01-23 03:33:00,30.7,-1.8,30.03,East,98,1.0,7.0,24,0.00,,,0.00,meteohub,2013-01-23 10:33:00,
2013-01-23 03:34:00,30.7,-1.8,30.03,East,98,0.0,7.0,24,0.00,,,0.00,meteohub,2013-01-23 10:34:00,
2013-01-23 03:36:00,30.7,-3.6,30.02,South,189,0.0,7.0,22,0.00,,,0.00,meteohub,2013-01-23 10:36:00,
2013-01-23 03:37:00,30.7,-3.6,30.02,South,189,0.0,7.0,22,0.00,,,0.00,meteohub,2013-01-23 10:37:00,
2013-01-23 03:38:00,30.7,-4.5,30.02,South,189,0.0,7.0,21,0.00,,,0.00,meteohub,2013-01-23 10:38:00,
2013-01-23 03:40:00,30.7,-2.7,30.02,South,189,0.0,7.0,23,0.00,,,0.00,meteohub,2013-01-23 10:40:00,
2013-01-23 03:42:00,30.7,-2.7,30.02,WSW,244,1.0,6.0,23,0.00,,,0.00,meteohub,2013-01-23 10:42:00,
2013-01-23 03:45:00,30.9,-3.5,30.03,West,275,7.0,7.0,22,0.00,,,0.00,meteohub,2013-01-23 10:45:00,
2013-01-23 03:47:00,30.9,-3.5,30.02,WSW,244,4.0,6.0,22,0.00,,,0.00,meteohub,2013-01-23 10:47:00,
2013-01-23 03:48:00,31.3,-4.2,30.02,SSW,213,5.0,6.0,21,0.00,,,0.00,meteohub,2013-01-23 10:48:00,
2013-01-23 03:51:00,31.6,-3.8,30.02,NW,304,5.0,9.0,21,0.00,,,0.00,meteohub,2013-01-23 10:51:00,
2013-01-23 03:52:00,31.6,-2.9,30.02,West,267,4.0,9.0,22,0.00,,,0.00,meteohub,2013-01-23 10:52:00,
2013-01-23 03:53:00,32.0,-3.5,30.02,WSW,254,2.0,9.0,21,0.00,,,0.00,meteohub,2013-01-23 10:53:00,
2013-01-23 03:55:00,32.4,-5.3,30.02,SW,221,2.0,9.0,19,0.00,,,0.00,meteohub,2013-01-23 10:55:00,
2013-01-23 03:59:00,33.1,-1.7,30.03,SW,234,0.0,9.0,22,0.00,,,0.00,meteohub,2013-01-23 10:59:00,
2013-01-23 04:00:00,33.1,-1.7,30.03,SW,233,2.0,9.0,22,0.00,,,0.00,meteohub,2013-01-23 11:00:00,
2013-01-23 04:04:00,33.3,-3.5,30.03,SW,234,2.0,9.0,20,0.00,,,0.00,meteohub,2013-01-23 11:04:00,
2013-01-23 04:05:00,33.3,-2.6,30.03,SW,234,3.0,9.0,21,0.00,,,0.00,meteohub,2013-01-23 11:05:00,
2013-01-23 04:07:00,33.3,-1.5,30.03,SW,234,1.0,6.0,22,0.00,,,0.00,meteohub,2013-01-23 11:07:00,
2013-01-23 04:11:00,33.1,-1.7,30.03,West,271,0.0,5.0,22,0.00,,,0.00,meteohub,2013-01-23 11:11:00,
2013-01-23 04:12:00,33.1,-2.6,30.03,West,271,1.0,5.0,21,0.00,,,0.00,meteohub,2013-01-23 11:12:00,
2013-01-23 04:13:00,33.1,-2.6,30.03,West,271,2.0,5.0,21,0.00,,,0.00,meteohub,2013-01-23 11:13:00,
2013-01-23 04:16:00,32.9,-3.8,30.03,West,271,0.0,5.0,20,0.00,,,0.00,meteohub,2013-01-23 11:16:00,
2013-01-23 04:17:00,32.9,-4.9,30.03,West,271,0.0,5.0,19,0.00,,,0.00,meteohub,2013-01-23 11:17:00,
2013-01-23 04:18:00,32.9,-4.9,30.03,West,271,1.0,5.0,19,0.00,,,0.00,meteohub,2013-01-23 11:18:00,
2013-01-23 04:22:00,32.7,-2.9,30.04,West,271,3.0,5.0,21,0.00,,,0.00,meteohub,2013-01-23 11:22:00,
2013-01-23 04:23:00,32.7,-2.9,30.04,West,271,0.0,5.0,21,0.00,,,0.00,meteohub,2013-01-23 11:23:00,
2013-01-23 04:24:00,32.7,-2.9,30.04,West,271,0.0,5.0,21,0.00,,,0.00,meteohub,2013-01-23 11:24:00,